Flag for Canada Weather past 2 weeks in Cape Dorset, Nunavut, Canada

Now
27 °F

Light snow. Cloudy.


Feels Like: 13 °F
Forecast: 23 / 33 °F
Wind: 21 mph from West

Location: Cape Dorset

Current Time: May 30, 2015 at 8:58:05 AM

Latest Report: May 30, 2015 at 8:00 AM


Visibility: 2 mi

Pressure: 29.80 "Hg

Humidity: 93%

Dew point: 25 °F

Location of Cape DorsetLocation

Historic Weather in Cape Dorset — Graph

°F

Cape Dorset temperature yesterday

Maximum temperature yesterday: 28 °F (at 12:00 AM)
Minimum temperature yesterday: 23 °F (at 8:00 PM)
Average temperature yesterday: 26 °F

Past Weeks' High & Low Weather Summary

 TemperatureHumidityPressure
High34 °F (May 16, 12:02 PM)100% (May 16, 12:00 AM)30.05 "Hg (May 16, 12:00 AM)
Low12 °F (May 25, 8:00 AM)59% (May 19, 3:00 PM)29.36 "Hg (May 24, 10:58 PM)
Average24 °F87%29.73 "Hg
* Reported May 15 7:00 AM — May 30 7:00 AM, Cape Dorset, Weather by CustomWeather, © 2015

Note: Actual official high and low records may vary slightly from our data, if they occured in-between our weather recording intervals... More about our weather records

Advertising

Cape Dorset weather history for previous 24 hours

 ConditionsComfort  
Time TempWeatherWind HumidityBarometerVisibility
7:00 AM
Sat, May 30
25 °FIce fog.16 mph100%29.83 "Hg4 mi
6:57 AM25 °FIce fog.16 mph100%29.83 "Hg5 mi
6:00 AM25 °FOvercast.10 mph93%29.84 "Hg9 mi
5:00 AM25 °FLow clouds.14 mph93%29.85 "Hg9 mi
4:00 AM23 °FOvercast.12 mph93%29.87 "Hg9 mi
3:00 AM23 °FOvercast.10 mph93%29.89 "Hg9 mi
2:00 AM23 °FOvercast.17 mph93%29.89 "Hg9 mi
1:00 AM23 °FOvercast.20 mph86%29.91 "Hg9 mi
12:00 AM23 °FOvercast.18 mph93%29.92 "Hg9 mi
11:00 PM
Fri, May 29
23 °FOvercast.20 mph93%29.91 "Hg9 mi
10:00 PM25 °FOvercast.25 mph86%29.92 "Hg9 mi
9:00 PM23 °FOvercast.25 mph93%29.94 "Hg9 mi
8:00 PM23 °FOvercast.26 mph93%29.94 "Hg9 mi
7:00 PM25 °FOvercast.22 mph86%29.96 "Hg9 mi
6:58 PM25 °FOvercast.24 mph86%29.96 "Hg9 mi
6:00 PM25 °FOvercast.28 mph86%29.95 "Hg9 mi
5:00 PM27 °FOvercast.29 mph80%29.95 "Hg15 mi
4:00 PM27 °FOvercast.31 mph86%29.96 "Hg15 mi
3:00 PM27 °FLight snow. Overcast.28 mph86%29.97 "Hg15 mi
2:00 PM27 °FLight snow. Overcast.29 mph93%29.96 "Hg15 mi
1:00 PM27 °FLight snow. Overcast.29 mph93%29.96 "Hg15 mi
12:00 PM27 °FLight snow. Overcast.22 mph86%29.99 "Hg15 mi
11:00 AM27 °FLight snow. Overcast.28 mph86%29.99 "Hg15 mi
10:00 AM27 °FOvercast.26 mph80%30.00 "Hg15 mi
9:00 AM27 °FOvercast.20 mph86%30.02 "Hg15 mi
8:00 AM27 °FOvercast.23 mph80%30.02 "Hg15 mi
Weather by CustomWeather, © 2015

See weather overviewHow to use our weather pages